Location: Home
(42.5358°N, 72.7383°W)
Time: 06:20:15
(UTC-05:00)

Courier 1B Rocket - Pass Details

Date: 05 December 2021
Orbit: 920 x 1202 km, 28.2° (Epoch: 25 January)

Event Time Altitude Azimuth Distance (km) Brightness Sun altitude
Rises 21:33:38 0° 224° (SW) 3,718 - -56.7°
Reaches altitude 10° 21:37:21 10° 205° (SSW) 2,717 - -57.3°
Maximum altitude 21:41:21 17° 167° (SSE) 2,200 - -57.9°
Drops below altitude 10° 21:45:16 10° 128° (SE) 2,635 - -58.6°
Sets 21:48:47 0° 109° (ESE) 3,558 - -59.1°
